カタログに戻る

CZ-6A DEB

運用中SSO
NORAD 56652·DEBRIS·🇨🇳 China

打ち上げ Nov 11, 2022 から Taiyuan Satellite Launch Center

Loading…

次のパス (今後24時間)

TLE

最新Source: Space-Track

元期: Sep 14, 2026, 11:33 UTC

1 56652U 22151AGC 26257.48147595  .00003293  00000-0  13232-2 0  9990
2 56652  98.8116 274.9952 0077738  83.7801 277.2227 14.27189643184227

AllMySatでCZ-6A DEBをリアルタイム追跡

Download on the App Store